When you browse on this site, cookies collect data to enhance your experience and personalize the content and advertising you see.
Visit our Privacy Policy to learn more. By continuing to use the site, you agree to this use of cookies and data.
  • en France
  • Liste des pays
  • À 7 jours
  • Température de l'eau
  • Carte météo
  • Widgets météo
  • user-avatar
    Se connecter

    Météo par heure à Northampton

    Ce jour, 27 Février, Jeudi

    Heure Température Précipitation Vent Pression Humidité
    00:00 +1°C° 0 mm 3 m/s 744 mmHg 88%
    01:00 +1°C° 0 mm 3 m/s 743 mmHg 89%
    02:00 +1°C° 0 mm 3 m/s 742 mmHg 90%
    03:00 +1°C° 0 mm 3 m/s 741 mmHg 91%
    04:00 +1°C° 0.8 mm 3 m/s 740 mmHg 93%
    05:00 +2°C° 0.8 mm 2 m/s 739 mmHg 95%
    06:00 +3°C° 0.8 mm 1 m/s 738 mmHg 98%
    07:00 +2°C° 0.7 mm 2 m/s 738 mmHg 97%
    08:00 +1°C° 0.7 mm 3 m/s 738 mmHg 97%
    09:00 +1°C° 0.7 mm 3 m/s 738 mmHg 97%
    10:00 +1°C° 0.1 mm 4 m/s 739 mmHg 91%
    11:00 +1°C° 0.1 mm 6 m/s 740 mmHg 86%
    12:00 +2°C° 0.1 mm 7 m/s 741 mmHg 80%
    13:00 +3°C° 0.1 mm 7 m/s 742 mmHg 76%
    14:00 +3°C° 0.1 mm 7 m/s 743 mmHg 71%
    15:00 +2°C° 0.1 mm 8 m/s 744 mmHg 67%
    16:00 +2°C° 0 mm 7 m/s 745 mmHg 70%
    17:00 +1°C° 0 mm 6 m/s 746 mmHg 73%
    18:00 0°C° 0 mm 5 m/s 747 mmHg 76%
    19:00 0°C° 0 mm 5 m/s 748 mmHg 79%
    20:00 -1°C° 0 mm 4 m/s 749 mmHg 81%
    21:00 -1°C° 0 mm 4 m/s 749 mmHg 83%
    22:00 -1°C° 0 mm 4 m/s 750 mmHg 84%
    23:00 -2°C° 0 mm 4 m/s 750 mmHg 85%

    Demain, 28 Février, Vendredi

    Heure Température Précipitation Vent Pression Humidité
    00:00 -2°C° 0 mm 4 m/s 751 mmHg 86%
    01:00 -1°C° 0 mm 3 m/s 751 mmHg 85%
    02:00 0°C° 0 mm 3 m/s 750 mmHg 85%
    03:00 0°C° 0 mm 3 m/s 750 mmHg 85%
    04:00 0°C° 0 mm 3 m/s 750 mmHg 83%
    05:00 -1°C° 0 mm 4 m/s 749 mmHg 82%
    06:00 0°C° 0 mm 4 m/s 749 mmHg 80%
    07:00 0°C° 0.2 mm 5 m/s 748 mmHg 83%
    08:00 -1°C° 0.2 mm 6 m/s 747 mmHg 86%
    09:00 0°C° 0.2 mm 7 m/s 747 mmHg 89%
    10:00 0°C° 1.3 mm 8 m/s 745 mmHg 91%
    11:00 0°C° 1.3 mm 9 m/s 744 mmHg 93%
    12:00 0°C° 1.3 mm 10 m/s 743 mmHg 96%
    13:00 +2°C° 0.8 mm 9 m/s 741 mmHg 96%
    14:00 +4°C° 0.8 mm 8 m/s 740 mmHg 96%
    15:00 +6°C° 0.8 mm 7 m/s 739 mmHg 96%
    16:00 +6°C° 0.3 mm 7 m/s 738 mmHg 95%
    17:00 +8°C° 0.3 mm 7 m/s 738 mmHg 93%
    18:00 +8°C° 0.3 mm 7 m/s 737 mmHg 91%
    19:00 +7°C° 0 mm 8 m/s 736 mmHg 91%
    20:00 +7°C° 0 mm 8 m/s 736 mmHg 90%
    21:00 +7°C° 0 mm 9 m/s 735 mmHg 89%
    22:00 +7°C° 0.1 mm 9 m/s 734 mmHg 89%
    23:00 +7°C° 0.1 mm 10 m/s 734 mmHg 88%

    Après-demain, 29 Février, Samedi

    Heure Température Précipitation Vent Pression Humidité
    00:00 +7°C° 0.1 mm 10 m/s 733 mmHg 88%
    01:00 +7°C° 0.2 mm 10 m/s 731 mmHg 88%
    02:00 +7°C° 0.2 mm 10 m/s 730 mmHg 88%
    03:00 +7°C° 0.2 mm 11 m/s 728 mmHg 88%
    04:00 +7°C° 0.8 mm 10 m/s 727 mmHg 89%
    05:00 +7°C° 0.8 mm 10 m/s 726 mmHg 90%
    06:00 +7°C° 0.8 mm 10 m/s 725 mmHg 91%
    07:00 +5°C° 1.9 mm 10 m/s 725 mmHg 89%
    08:00 +3°C° 1.9 mm 10 m/s 725 mmHg 87%
    09:00 +2°C° 1.9 mm 9 m/s 725 mmHg 85%
    10:00 +2°C° 0.2 mm 10 m/s 726 mmHg 79%
    11:00 +2°C° 0.2 mm 11 m/s 726 mmHg 73%
    12:00 +2°C° 0.2 mm 11 m/s 727 mmHg 67%
    13:00 +2°C° 0.2 mm 11 m/s 727 mmHg 67%
    14:00 +2°C° 0.2 mm 11 m/s 726 mmHg 67%
    15:00 +1°C° 0.2 mm 11 m/s 726 mmHg 66%
    16:00 0°C° 0 mm 12 m/s 725 mmHg 69%
    17:00 -1°C° 0 mm 12 m/s 725 mmHg 72%
    18:00 -1°C° 0 mm 12 m/s 724 mmHg 76%
    19:00 -1°C° 0.1 mm 13 m/s 724 mmHg 75%
    20:00 0°C° 0.1 mm 13 m/s 724 mmHg 74%
    21:00 0°C° 0.1 mm 14 m/s 724 mmHg 73%
    22:00 0°C° 0 mm 14 m/s 724 mmHg 72%
    23:00 0°C° 0 mm 14 m/s 723 mmHg 70%

    1 Mars, Dimanche

    Heure Température Précipitation Vent Pression Humidité
    00:00 +1°C° 0 mm 14 m/s 723 mmHg 69%
    01:00 +1°C° 0 mm 14 m/s 723 mmHg 70%
    02:00 +1°C° 0 mm 14 m/s 723 mmHg 71%
    03:00 +1°C° 0 mm 14 m/s 723 mmHg 72%
    04:00 +1°C° 0 mm 14 m/s 724 mmHg 73%
    05:00 +1°C° 0 mm 13 m/s 724 mmHg 74%
    06:00 +2°C° 0 mm 12 m/s 725 mmHg 75%
    07:00 +2°C° 0 mm 12 m/s 725 mmHg 73%
    08:00 +1°C° 0 mm 13 m/s 726 mmHg 71%
    09:00 +1°C° 0 mm 13 m/s 726 mmHg 68%
    10:00 +2°C° 0 mm 12 m/s 727 mmHg 66%
    11:00 +3°C° 0 mm 12 m/s 728 mmHg 63%
    12:00 +4°C° 0 mm 12 m/s 729 mmHg 61%
    13:00 +3°C° 0 mm 11 m/s 729 mmHg 61%
    14:00 +3°C° 0 mm 10 m/s 729 mmHg 62%
    15:00 +3°C° 0 mm 10 m/s 730 mmHg 62%
    16:00 +2°C° 0 mm 9 m/s 730 mmHg 64%
    17:00 +2°C° 0 mm 8 m/s 730 mmHg 67%
    18:00 +2°C° 0 mm 7 m/s 730 mmHg 69%
    19:00 +1°C° 0 mm 8 m/s 731 mmHg 69%
    20:00 0°C° 0 mm 8 m/s 731 mmHg 69%
    21:00 0°C° 0 mm 9 m/s 732 mmHg 68%
    22:00 0°C° 0 mm 8 m/s 732 mmHg 71%
    23:00 -1°C° 0 mm 7 m/s 733 mmHg 74%

    2 Mars, Lundi

    Heure Température Précipitation Vent Pression Humidité
    00:00 -1°C° 0 mm 6 m/s 733 mmHg 76%
    01:00 -2°C° 0 mm 6 m/s 733 mmHg 79%
    02:00 -1°C° 0 mm 5 m/s 733 mmHg 82%
    03:00 -1°C° 0 mm 5 m/s 733 mmHg 85%
    04:00 -2°C° 0 mm 4 m/s 733 mmHg 86%
    05:00 -2°C° 0 mm 4 m/s 734 mmHg 87%
    06:00 -3°C° 0 mm 4 m/s 734 mmHg 88%
    07:00 -1°C° 0 mm 4 m/s 734 mmHg 82%
    08:00 0°C° 0 mm 5 m/s 735 mmHg 76%
    09:00 +1°C° 0 mm 6 m/s 735 mmHg 70%
    10:00 +2°C° 0 mm 6 m/s 736 mmHg 68%
    11:00 +3°C° 0 mm 6 m/s 736 mmHg 66%
    12:00 +4°C° 0 mm 6 m/s 737 mmHg 63%
    13:00 +4°C° 0 mm 7 m/s 737 mmHg 64%
    14:00 +4°C° 0 mm 7 m/s 737 mmHg 64%
    15:00 +4°C° 0 mm 7 m/s 738 mmHg 64%
    16:00 +3°C° 0 mm 6 m/s 738 mmHg 68%
    17:00 +2°C° 0 mm 5 m/s 739 mmHg 71%
    18:00 +1°C° 0 mm 4 m/s 740 mmHg 74%
    19:00 0°C° 0 mm 4 m/s 740 mmHg 76%
    20:00 0°C° 0 mm 4 m/s 741 mmHg 78%
    21:00 -1°C° 0 mm 4 m/s 742 mmHg 80%
    22:00 -1°C° 0 mm 4 m/s 742 mmHg 82%
    23:00 -1°C° 0 mm 4 m/s 743 mmHg 83%

    3 Mars, Mardi

    Heure Température Précipitation Vent Pression Humidité
    00:00 -2°C° 0 mm 4 m/s 744 mmHg 84%
    01:00 -2°C° 0 mm 4 m/s 744 mmHg 86%
    02:00 -2°C° 0 mm 4 m/s 744 mmHg 88%
    03:00 -2°C° 0 mm 4 m/s 744 mmHg 89%
    04:00 -2°C° 0 mm 4 m/s 744 mmHg 90%
    05:00 -2°C° 0 mm 3 m/s 744 mmHg 91%
    06:00 -2°C° 0 mm 3 m/s 745 mmHg 91%
    07:00 -1°C° 0 mm 3 m/s 745 mmHg 86%
    08:00 0°C° 0 mm 3 m/s 745 mmHg 81%
    09:00 +1°C° 0 mm 4 m/s 745 mmHg 76%
    10:00 +3°C° 0 mm 4 m/s 745 mmHg 71%
    11:00 +4°C° 0 mm 3 m/s 745 mmHg 66%
    12:00 +5°C° 0 mm 3 m/s 745 mmHg 61%
    13:00 +5°C° 0 mm 3 m/s 744 mmHg 61%
    14:00 +5°C° 0 mm 3 m/s 744 mmHg 61%
    15:00 +6°C° 0 mm 2 m/s 743 mmHg 61%
    16:00 +5°C° 0 mm 2 m/s 743 mmHg 66%
    17:00 +4°C° 0 mm 2 m/s 743 mmHg 72%
    18:00 +3°C° 0 mm 2 m/s 742 mmHg 78%
    19:00 +3°C° 0 mm 1 m/s 742 mmHg 81%
    20:00 +3°C° 0 mm 1 m/s 742 mmHg 84%
    21:00 +2°C° 0 mm 1 m/s 742 mmHg 87%
    22:00 +2°C° 0 mm 1 m/s 742 mmHg 88%
    23:00 +2°C° 0 mm 1 m/s 742 mmHg 89%
    Voir plus